GFSFLT2_850_dewp_021.txt.gz
Dewpoint
-4 -6 -9 -12 -12 -12 -11 -13 -11 -9 -3 2 1 3 2 1 1 -1 -2 -0 -2 -3 -3 -3 -2 -1 -3 -4 1 6 7 7
-6 -9 -17 -19 -18 -16 -13 -9 -5 -1 1 3 3 5 4 1 0 1 1 1 0 -1 -2 -2 -3 -3 -3 -3 -4 -2 4 5
-0 -1 1 -3 -3 -0 -0 1 1 2 3 4 5 5 3 2 1 0 -0 0 0 -1 0 0 -1 -1 -2 -3 -3 -2 -4 -5
-0 1 3 4 5 5 5 4 3 6 5 0 1 4 4 1 1 -1 0 2 2 2 3 3 2 0 2 2 -1 -3 -2 -1
4 2 6 7 7 5 4 2 4 4 4 -1 -1 1 1 0 -2 -1 1 2 2 3 3 4 3 0 2 4 4 3 1 -1
6 -1 4 6 7 5 6 6 5 2 4 1 -4 -3 -3 -2 -1 -0 2 2 3 3 1 1 -0 -2 -1 1 3 4 4 4
7 2 4 2 6 5 4 5 6 5 3 1 -2 -3 -1 -1 -1 -1 0 1 0 -1 -1 -2 -1 -1 -2 -2 -0 2 4 4
8 3 5 5 6 7 7 7 7 4 4 3 3 3 0 -0 0 0 0 -2 -2 -2 -1 -0 0 -0 -1 -2 -3 0 4 4
8 5 7 7 8 8 7 7 5 3 3 4 4 4 3 4 3 2 1 -1 -1 1 1 1 1 -1 -3 -5 -6 -7 -8 -10
9 7 6 7 8 8 6 5 3 4 5 4 4 5 5 4 3 3 2 1 1 1 1 1 -2 -5 -8 -10 -11 -12 -14 -14
9 5 8 8 8 6 6 5 4 4 5 5 5 5 4 3 2 1 1 2 1 -1 -3 -3 -3 -7 -8 -8 -8 -9 -10 -10
9 9 9 8 8 7 6 5 4 4 4 4 4 3 2 1 1 2 0 -2 -3 -3 -3 -3 -4 -7 -10 -13 -13 -15 -14 -6
10 9 8 8 8 7 5 4 3 3 2 2 2 1 2 2 -0 -1 -1 -2 -1 -2 -3 -4 -7 -14 -11 -8 -10 -4 -6 -7
4 5 8 8 7 3 4 5 3 2 2 2 2 1 0 -1 1 1 -0 -0 -1 -2 -5 -14 -16 -10 -3 -2 -2 -4 -2 -4
3 2 3 3 3 3 1 1 1 -0 -0 1 1 1 0 0 0 -0 -1 -4 -10 -17 -20 -17 -12 -10 -3 -3 -3 -2 -2 -3
-0 0 0 -0 -0 -0 -1 0 0 1 1 1 1 1 1 1 1 1 -7 -14 -16 -18 -16 -11 -7 -5 -4 -4 -3 -2 -2 -3
1 2 2 2 2 3 2 2 2 2 1 1 1 1 1 -1 -2 -6 -10 -11 -15 -15 -8 -4 -2 -2 -2 -2 -3 -3 -3 -2
2 3 3 3 3 3 2 2 2 2 2 2 -0 -2 -5 -5 -6 -6 -7 -13 -17 -13 -9 -7 -5 -5 -5 -6 -5 -4 -4 -3
3 3 2 2 3 3 2 2 1 -2 -5 -4 -3 -3 -4 -5 -5 -4 -10 -16 -15 -11 -9 -8 -8 -9 -8 -8 -8 -8 -7 -5
2 2 1 1 1 1 1 -2 -3 -4 -4 -3 -3 -3 -3 -3 -2 -7 -11 -10 -10 -10 -9 -9 -10 -11 -11 -10 -10 -10 -6 -7

GFSFLT2_850_dewp_024.txt.gz
Dewpoint
-2 -3 -3 -4 -6 -8 -9 -10 -7 -3 2 2 2 1 -1 -2 -3 -2 -3 -4 -5 -4 -4 -4 -4 -5 -5 -4 -5 -3 2 5
-4 -8 -14 -17 -16 -12 -12 -9 -4 1 2 2 3 1 -0 -1 -2 -1 -1 -1 -2 -1 -1 -1 -1 -1 -2 -4 -3 -3 -5 -5
-8 -14 -17 -16 -14 -12 -7 -2 2 2 1 2 3 1 2 2 -1 -1 -1 -0 0 1 2 2 1 -1 -1 -2 -2 -4 -3 -2
-1 -1 -4 -4 -2 -2 -1 -1 1 -0 -0 1 2 2 2 1 -1 -1 -0 1 2 2 2 2 1 -1 -2 -1 -2 -3 -3 -5
-1 1 3 3 1 -0 0 1 3 3 2 -1 0 2 2 2 -1 -1 1 1 1 1 1 -1 -2 -2 -1 -1 -2 -2 -1 -1
1 3 4 6 6 4 4 3 4 4 5 2 -2 0 2 1 -1 -1 1 2 2 0 -2 -1 -1 -1 -1 -0 -1 -2 -1 1
3 1 5 6 7 7 7 7 7 6 6 4 1 -1 1 -1 -1 0 2 2 -0 -1 -1 1 1 1 1 0 -2 -3 -2 2
7 3 6 7 8 8 8 8 8 8 6 4 4 3 3 1 1 2 2 -0 -1 -0 1 1 0 -1 -3 -4 -7 -9 -10 -10
8 5 8 8 7 8 8 8 8 7 7 6 4 4 4 4 5 4 3 2 1 1 1 -2 -3 -4 -4 -5 -7 -9 -10 -11
8 7 8 8 8 8 8 8 6 6 7 6 5 5 5 5 4 3 2 1 0 -2 -2 -3 -3 -4 -4 -5 -5 -6 -7 -9
9 8 8 9 7 7 8 6 5 6 6 5 5 5 5 3 2 2 2 -0 -1 -1 -1 -1 -2 -3 -3 -5 -10 -14 -16 -15
9 9 8 9 10 9 7 6 4 4 4 4 4 4 3 2 3 1 -0 0 0 -0 -0 -1 -2 -5 -10 -19 -22 -23 -18 -9
10 8 9 9 8 7 5 4 5 5 2 2 2 2 2 1 0 -0 1 1 1 0 -2 -7 -14 -21 -23 -26 -27 -10 -12 -19
7 8 9 7 6 6 5 4 1 -0 -1 -0 -0 0 1 1 1 1 1 1 0 -7 -17 -21 -21 -18 -13 -13 -8 -10 -8 -7
3 4 5 4 2 0 -1 -1 -1 -1 0 1 1 1 1 1 1 -0 -4 -5 -9 -13 -18 -21 -17 -16 -10 -6 -4 -4 -4 -6
-0 0 0 0 1 1 1 2 2 2 1 2 2 1 1 -1 -6 -8 -7 -7 -8 -15 -19 -17 -13 -6 -4 -2 -2 -2 -3 -4
1 2 2 2 2 2 2 2 3 2 2 1 1 -4 -3 -4 -4 -5 -5 -4 -11 -15 -14 -10 -9 -7 -7 -7 -8 -7 -6 -4
2 3 3 3 3 3 3 2 2 2 -1 -5 -4 -4 -5 -4 -4 -5 -5 -4 -11 -14 -15 -14 -13 -11 -10 -10 -9 -8 -7 -6
3 3 2 2 2 2 2 1 -2 -4 -5 -4 -4 -3 -4 -4 -3 -3 -3 -7 -8 -4 -10 -10 -11 -11 -11 -12 -11 -11 -10 -10
2 1 -1 -1 -1 -1 -3 -5 -4 -2 -2 -2 -2 -2 -3 -2 -2 -2 -3 -4 -4 -5 -9 -12 -13 -13 -14 -13 -12 -11 -11 -9

GFSFLT2_850_dewp_027.txt.gz
Dewpoint
12 6 2 -1 -2 -4 -8 -6 -6 1 1 1 -0 -2 -3 -4 -4 -4 -5 -5 -4 -4 -4 -4 -3 -4 -4 -4 -5 -6 -6 -6
4 0 -1 -1 -3 -7 -8 -5 1 1 2 0 -1 -2 -2 -3 -3 -4 -4 -4 -3 -3 -3 -2 -2 -2 -2 -2 -2 -3 -4 -5
-1 -5 -6 -8 -10 -8 -5 -2 4 3 3 3 1 0 -1 -2 -2 -2 -2 -1 -0 0 1 1 -1 -2 -2 -2 -1 -1 -2 -3
-11 -14 -14 -12 -9 -6 -2 4 4 3 3 5 4 2 1 1 -0 0 1 1 2 2 1 -1 -1 -0 0 -0 -0 -1 -1 -1
-5 -6 -9 -6 -3 1 3 5 5 4 3 4 4 4 4 2 -0 1 1 2 2 2 -1 -1 0 1 1 -0 -1 -2 -1 -2
2 1 3 4 4 6 4 6 7 7 6 4 3 5 5 3 1 1 1 1 2 -1 -1 -0 1 1 -0 -1 -2 -5 -6 -6
3 6 7 7 7 8 8 8 9 9 8 6 4 4 5 2 1 1 1 2 0 -1 -0 1 0 -1 -2 -3 -4 -5 -6 -7
4 6 7 7 8 8 8 7 8 10 8 8 6 3 5 3 2 3 3 2 2 1 1 -1 -2 -3 -3 -3 -4 -5 -5 -6
7 6 7 7 8 8 7 5 7 8 8 7 6 4 5 5 5 4 3 2 2 1 -1 -1 -1 -1 -2 -3 -4 -4 -6 -8
8 8 8 9 9 6 5 6 7 7 7 6 6 5 5 5 4 2 2 2 1 0 0 0 0 -1 -3 -5 -7 -10 -15 -17
9 9 7 9 8 6 8 8 8 7 7 6 6 5 5 5 3 3 2 0 0 1 1 1 -2 -5 -9 -14 -18 -23 -26 -24
9 10 8 8 6 7 9 7 7 5 5 5 4 3 3 2 2 1 -0 1 1 1 -2 -7 -12 -18 -22 -18 -26 -26 -20 -11
9 9 8 7 8 8 7 4 5 5 0 1 2 1 2 1 0 0 1 0 -3 -7 -9 -11 -16 -20 -11 -6 -10 -16 -4 -13
10 9 8 7 6 6 5 4 0 0 -0 0 1 1 1 1 1 0 -4 -8 -9 -8 -8 -10 -14 -19 -16 -5 -7 -8 -3 -6
7 7 7 4 4 4 1 0 1 1 1 1 1 1 1 1 -1 -4 -7 -6 -7 -7 -7 -10 -12 -10 -14 -4 -5 -6 -4 -5
1 2 2 2 3 2 1 2 2 2 2 2 2 1 -2 -6 -4 -6 -7 -6 -6 -6 -6 -10 -14 -6 -7 -4 -5 -5 -6 -7
1 1 1 1 2 2 2 3 3 3 2 2 -2 -5 -7 -8 -7 -6 -5 -4 -4 -5 -6 -5 -13 -12 -5 -6 -6 -6 -6 -6
2 2 2 3 3 3 3 3 2 1 -2 -5 -6 -6 -4 -3 -4 -4 -3 -3 -3 -4 -4 -6 -9 -12 -8 -7 -8 -8 -8 -8
2 3 3 2 1 1 1 -1 -4 -7 -8 -7 -3 -2 -3 -2 -3 -3 -2 -3 -4 -4 -4 -7 -10 -11 -12 -10 -11 -9 -9 -9
3 3 0 -2 -5 -6 -9 -13 -9 -5 -3 -2 -3 -7 -9 -5 -2 -2 -2 -3 -4 -4 -6 -8 -10 -11 -12 -14 -14 -10 -12 -12

GFSFLT2_850_dewp_033.txt.gz
Dewpoint
12 11 9 4 1 -0 -3 -3 -5 -4 2 2 -1 -2 -3 -3 -4 -4 -4 -4 -3 -2 -2 -2 -2 -1 -1 -1 1 2 3 3
12 10 11 4 2 -1 -3 -4 -1 3 3 1 -1 -1 -1 -0 -0 -3 -2 -1 -1 -0 -1 -2 -1 1 1 1 2 2 3 2
11 11 11 11 4 -3 -2 2 3 5 4 3 6 9 9 9 0 -2 -1 -1 0 0 -0 -2 1 3 2 1 2 2 2 1
10 11 11 9 7 -1 4 6 8 10 10 9 10 10 9 8 -1 -1 -0 1 2 2 1 2 3 3 2 2 2 2 0 -0
10 11 10 7 7 8 8 10 10 10 11 10 9 10 10 9 7 6 7 5 6 4 4 4 4 3 3 3 2 2 1 1
10 10 8 8 7 8 9 10 10 10 10 8 10 8 10 9 6 6 6 5 4 4 4 4 4 3 3 3 2 2 1 1
8 8 8 9 9 10 10 10 10 10 9 7 9 8 8 9 7 6 5 5 5 5 4 3 3 3 3 2 2 2 1 1
7 8 9 10 10 10 10 10 11 11 8 9 7 5 5 8 7 6 5 5 5 3 2 3 3 3 2 2 1 -1 -1 -1
8 9 10 11 11 9 7 4 4 4 5 6 7 7 6 7 6 6 5 4 2 3 3 3 3 1 -0 -1 -2 -5 -4 -5
10 10 11 11 9 5 4 4 4 7 7 7 7 7 7 6 6 5 3 2 3 3 2 1 0 -0 -2 -2 -6 -7 -6 -6
10 11 10 8 8 4 5 5 3 8 7 7 7 6 5 5 4 3 2 3 3 2 1 0 -1 -2 -5 -5 -5 -6 -5 -6
11 11 7 6 6 6 7 4 6 7 6 5 5 5 5 4 4 3 2 2 2 2 1 -1 -3 -6 -6 -4 -4 -6 -6 -4
11 12 10 8 8 8 7 8 7 5 5 5 4 4 3 3 3 3 2 1 1 1 -1 -3 -4 -4 -5 -5 -4 -6 -8 -4
11 11 9 10 10 9 7 6 6 5 5 4 4 2 3 3 2 2 1 0 -2 -2 -1 -2 -4 -4 -4 -5 -5 -7 -7 -6
11 11 10 10 8 7 6 6 6 5 4 4 3 3 3 2 1 1 -0 -2 -4 -2 -2 -2 -3 -4 -4 -5 -6 -7 -7 -7
11 10 9 8 7 5 5 4 3 4 4 4 4 3 2 1 0 -0 -1 -1 -1 -2 -3 -2 -3 -4 -5 -6 -6 -6 -7 -8
9 8 7 6 6 5 6 4 5 5 4 4 3 2 2 -0 -1 -0 -0 -1 -2 -2 -2 -2 -3 -4 -5 -6 -7 -8 -8 -8
8 6 5 6 5 5 5 5 4 3 1 0 -3 -4 -3 -3 -2 -2 -1 -2 -2 -2 -2 -3 -3 -3 -3 -4 -5 -7 -6 -7
7 5 5 5 5 5 5 3 1 -2 -2 -3 -2 -3 -4 -5 -3 -2 -3 -3 -3 -3 -2 -5 -3 -3 -2 -2 -5 -6 -6 -6
4 4 5 5 4 3 1 -1 -2 -2 -2 -2 -5 -5 -4 -4 -4 -4 -4 -4 -4 -4 -4 -3 -3 -2 -2 -3 -5 -5 -5 -6

GFSFLT2_850_dewp_036.txt.gz
Dewpoint
12 11 9 5 1 -1 -2 -4 -7 -7 -1 -2 -2 -3 -3 -4 -5 -5 -5 -4 -3 -2 -2 -2 -0 1 1 1 2 1 2 2
12 10 8 2 -0 -2 -2 -6 -4 1 0 -1 -2 -1 -1 -2 -3 -4 -3 -2 -1 -1 -1 -2 3 3 2 2 2 1 0 1
11 9 5 1 -2 -3 -3 -2 2 3 1 8 9 9 9 9 -2 -3 -2 -0 -0 0 0 2 3 3 3 3 2 2 1 0
10 11 8 2 -3 -2 2 4 5 6 4 10 9 9 10 7 4 0 1 2 4 4 4 4 4 3 3 3 3 2 1 1
11 11 9 7 2 6 9 9 10 10 10 9 9 5 9 9 7 7 7 6 6 5 4 4 4 4 3 3 2 2 1 1
10 9 7 7 8 8 9 10 10 8 4 6 4 9 9 7 7 7 6 5 5 5 5 5 4 3 3 3 2 2 1 -0
6 5 8 5 8 9 10 9 7 7 7 5 9 8 9 7 7 6 6 4 5 5 5 3 3 3 3 2 1 0 -3 -3
2 -1 7 9 9 9 9 8 8 9 8 9 8 6 6 8 7 6 6 5 5 4 3 3 3 2 1 -1 -1 -2 -5 -6
7 8 10 10 9 9 8 5 3 3 4 4 7 8 7 6 6 6 5 6 4 3 3 2 1 0 -1 -3 -4 -4 -7 -7
9 10 11 10 9 8 3 2 3 3 5 5 7 7 7 7 6 5 5 3 3 2 2 1 0 -1 -3 -7 -6 -6 -8 -6
10 11 10 9 8 7 4 3 3 3 4 5 7 7 6 5 5 5 3 3 3 2 2 0 -2 -6 -8 -6 -6 -5 -6 -6
10 11 8 9 7 5 4 5 5 4 6 6 6 5 4 4 4 3 2 2 2 1 0 -1 -4 -4 -4 -5 -6 -5 -6 -6
10 11 9 8 7 8 7 6 6 7 5 5 4 2 2 3 4 3 3 2 1 -0 -2 -1 -2 -3 -4 -6 -4 -5 -6 -7
10 10 10 8 9 9 8 7 6 5 5 2 4 2 4 3 2 2 1 1 -1 -3 -3 -2 -2 -3 -4 -4 -4 -5 -6 -6
10 10 10 9 10 8 7 6 6 6 4 2 3 3 3 2 2 1 1 -0 -2 -2 -2 -2 -2 -3 -3 -4 -5 -5 -5 -6
10 10 9 9 8 7 6 6 5 4 4 4 4 3 3 2 1 0 -1 -1 -1 -1 -1 -2 -2 -3 -3 -4 -5 -5 -6 -7
10 8 9 9 7 6 6 5 5 4 4 4 4 3 0 -1 -1 -1 -0 -0 -0 -1 -2 -1 -1 -2 -3 -3 -5 -5 -6 -7
10 9 8 7 6 6 6 5 5 4 3 2 0 -2 -3 -3 -2 -2 -2 -2 -3 -2 -2 -3 -2 -3 -5 -2 -3 -3 -4 -5
9 7 6 6 6 6 6 6 4 3 0 -1 -3 -2 -3 -4 -4 -5 -7 -6 -5 -4 -4 -4 -3 -2 -3 -3 -3 -3 -3 -4
8 6 5 5 6 6 5 3 0 -2 -2 -1 1 -4 -5 -4 -5 -7 -6 -6 -6 -6 -6 -4 -4 -3 -2 -3 -3 -3 -3 -4